This demonstration page uses our WeatherBlox Daily Observations layout. Learn more.

Hourly Observations for May 16, 2019

Temp ( °F °C ) Dew Point ( °F °C ) Humidity (%) Winds ( mph kmh ) Pressure ( in mb ) Visibility ( mi km ) Precip ( " mm )
12:54 am 00:54 Clear 69 20.6 62 16.7 78 78 S 9 15 29.74 1007 10 16.09344 0 0
1:54 am 01:54 Clear 67 19.4 62 16.7 84 84 S 9 15 29.74 1007 10 16.09344 0 0
2:54 am 02:54 Clear 67 19.4 62 16.7 84 84 S 9 15 29.71 1006 10 16.09344 0 0
3:54 am 03:54 Clear 69 20.6 61 16.1 76 76 S 6 9 29.71 1006 10 16.09344 0 0
4:54 am 04:54 Clear 66 18.9 60 15.6 81 81 S 7 11 29.71 1006 10 16.09344 0 0
5:54 am 05:54 Clear 68 20 58 14.4 70 70 SSW 12 19 29.68 1005 10 16.09344 0 0
6:54 am 06:54 Sunny 68 20 57 13.9 68 68 SSW 9 15 29.71 1006 10 16.09344 0 0
7:54 am 07:54 Sunny 72 22.2 57 13.9 59 59 SW 9 15 29.71 1006 10 16.09344 0 0
8:54 am 08:54 Sunny 76 24.4 59 15 56 56 SW 12 19 29.71 1006 10 16.09344 0 0
9:54 am 09:54 Sunny 81 27.2 59 15 47 47 SW 12 19 29.71 1006 10 16.09344 0 0
10:54 am 10:54 Sunny 83 28.3 59 15 44 44 SW 14 22 29.71 1006 10 16.09344 0 0
11:54 am 11:54 Sunny 85 29.4 62 16.7 46 46 S 10 17 29.68 1005 10 16.09344 0 0
12:54 pm 12:54 Sunny 87 30.6 62 16.7 43 43 S 8 13 29.68 1005 10 16.09344 0 0
1:54 pm 13:54 Sunny 89 31.7 62 16.7 41 41 S 14 22 29.65 1004 10 16.09344 0 0
2:54 pm 14:54 Sunny 91 32.8 63 17.2 39 39 S 13 20 29.62 1003 10 16.09344 0 0
3:54 pm 15:54 Sunny 92 33.3 61 16.1 36 36 S 13 20 29.62 1003 10 16.09344 0 0
4:54 pm 16:54 Sunny 92 33.3 63 17.2 38 38 S 18 30 29.59 1002 10 16.09344 0 0
5:54 pm 17:54 Sunny 91 32.8 62 16.7 38 38 SSW 13 20 29.59 1002 10 16.09344 0 0
6:54 pm 18:54 Sunny 89 31.7 60 15.6 38 38 SSW 12 19 29.59 1002 10 16.09344 0 0
7:54 pm 19:54 Sunny 87 30.6 61 16.1 42 42 SSW 14 22 29.56 1001 10 16.09344 0 0
8:54 pm 20:54 Clear 82 27.8 61 16.1 49 49 S 13 20 29.59 1002 10 16.09344 0 0
9:54 pm 21:54 Clear 80 26.7 61 16.1 52 52 S 12 19 29.59 1002 10 16.09344 0 0
10:54 pm 22:54 Clear 77 25 62 16.7 60 60 undefined N/A 29.62 1003 10 16.09344 0 0
11:54 pm 23:54 Clear 76 24.4 62 16.7 62 62 S 12 19 29.62 1003 10 16.09344 0 0

Powered by AerisWeather